GBGKU EGBO-EGNV

Flight info

Callsign GBGKU
Flight time 1h 25m
Altitude 1300
Route EGBO STAFA STONE NEWCASTLEULYME EGCC BOLTON LEYBURN EGNV
Aircraft P28R/L-SDFGLY/S

Departure

Time 2026-05-06 14:57
Airport Wolverhampton Halfpenny Green Airport (EGBO)

Arrival

Time 2026-05-06 16:23
Airport Teesside International Airport (EGNV)
Time Latitude Longitude Altitude Speed Heading
2026-05-06 14:38 52.51547 -2.26461 266 ft 0 kts 185°
2026-05-06 14:49 52.51545 -2.26462 266 ft 0 kts 192°
2026-05-06 14:50 52.51532 -2.26505 266 ft 11 kts 285°
2026-05-06 14:50 52.51542 -2.26663 263 ft 15 kts 276°
2026-05-06 14:50 52.51576 -2.26830 257 ft 16 kts 297°
2026-05-06 14:50 52.51642 -2.26963 255 ft 14 kts 326°
2026-05-06 14:51 52.51721 -2.26958 255 ft 10 kts 47°
2026-05-06 14:51 52.51730 -2.26873 258 ft 7 kts 97°
2026-05-06 14:51 52.51725 -2.26791 260 ft 8 kts 96°
2026-05-06 14:51 52.51718 -2.26694 261 ft 9 kts 97°
2026-05-06 14:52 52.51714 -2.26603 264 ft 7 kts 84°
2026-05-06 14:52 52.51741 -2.26526 265 ft 9 kts 28°
2026-05-06 14:52 52.51783 -2.26475 268 ft 6 kts 39°
2026-05-06 14:52 52.51812 -2.26439 270 ft 5 kts 35°
2026-05-06 14:53 52.51846 -2.26400 272 ft 7 kts 37°
2026-05-06 14:53 52.51899 -2.26336 275 ft 12 kts 35°
2026-05-06 14:53 52.51966 -2.26255 279 ft 12 kts 37°
2026-05-06 14:53 52.52004 -2.26218 280 ft 4 kts 69°
2026-05-06 14:54 52.52005 -2.26212 280 ft 0 kts 91°
2026-05-06 14:54 52.52009 -2.26196 280 ft 1 kts 47°
2026-05-06 14:54 52.52009 -2.26195 280 ft 0 kts 45°
2026-05-06 14:54 52.52013 -2.26155 280 ft 7 kts 135°
2026-05-06 14:55 52.52005 -2.26147 281 ft 0 kts 162°
2026-05-06 14:56 52.51986 -2.26134 282 ft 16 kts 156°
2026-05-06 14:56 52.51719 -2.25934 277 ft 67 kts 156°
2026-05-06 14:56 52.51221 -2.25583 391 ft 78 kts 153°
2026-05-06 14:56 52.50753 -2.25135 576 ft 78 kts 140°
2026-05-06 14:57 52.50397 -2.24494 821 ft 72 kts 92°
2026-05-06 14:57 52.50560 -2.23796 1034 ft 69 kts 39°
2026-05-06 14:57 52.51007 -2.23511 1165 ft 83 kts
2026-05-06 14:57 52.51653 -2.23671 1287 ft 98 kts 346°
2026-05-06 14:58 52.52330 -2.24071 1404 ft 110 kts 342°
2026-05-06 14:58 52.53045 -2.24583 1514 ft 111 kts 341°
2026-05-06 14:58 52.53774 -2.25005 1544 ft 112 kts 350°
2026-05-06 14:58 52.54536 -2.25271 1577 ft 114 kts 354°
2026-05-06 14:59 52.55320 -2.25412 1623 ft 112 kts 359°
2026-05-06 14:59 52.56125 -2.25455 1622 ft 116 kts
2026-05-06 14:59 52.56925 -2.25552 1614 ft 118 kts 357°
2026-05-06 14:59 52.57745 -2.25597 1636 ft 117 kts
2026-05-06 15:00 52.58547 -2.25520 1666 ft 115 kts
2026-05-06 15:00 52.59383 -2.25433 1567 ft 123 kts
2026-05-06 15:00 52.60236 -2.25393 1555 ft 123 kts
2026-05-06 15:00 52.61092 -2.25335 1484 ft 125 kts
2026-05-06 15:01 52.61926 -2.25285 1557 ft 113 kts
2026-05-06 15:01 52.62724 -2.25213 1411 ft 115 kts
2026-05-06 15:01 52.63507 -2.25098 1327 ft 111 kts
2026-05-06 15:01 52.64245 -2.24987 1255 ft 107 kts
2026-05-06 15:02 52.64985 -2.24881 1142 ft 107 kts
2026-05-06 15:02 52.65703 -2.24740 1120 ft 99 kts 10°
2026-05-06 15:02 52.66365 -2.24594 1078 ft 98 kts 10°
2026-05-06 15:02 52.67036 -2.24440 1048 ft 93 kts 11°
2026-05-06 15:03 52.67674 -2.24309 1016 ft 92 kts
2026-05-06 15:03 52.68291 -2.24296 1016 ft 90 kts 359°
2026-05-06 15:03 52.68922 -2.24453 1006 ft 91 kts 353°
2026-05-06 15:03 52.69550 -2.24606 982 ft 91 kts 354°
2026-05-06 15:04 52.70141 -2.24778 1062 ft 84 kts 352°
2026-05-06 15:04 52.70709 -2.24961 1070 ft 85 kts 349°
2026-05-06 15:04 52.71284 -2.25200 1081 ft 83 kts 347°
2026-05-06 15:04 52.71837 -2.25407 1074 ft 83 kts 353°
2026-05-06 15:05 52.72402 -2.25607 1054 ft 84 kts 349°
2026-05-06 15:05 52.72937 -2.25960 1070 ft 84 kts 338°
2026-05-06 15:05 52.73460 -2.26391 1055 ft 84 kts 337°
2026-05-06 15:05 52.73978 -2.26835 1048 ft 84 kts 336°
2026-05-06 15:06 52.74491 -2.27271 1042 ft 84 kts 338°
2026-05-06 15:06 52.75037 -2.27579 1061 ft 81 kts 345°
2026-05-06 15:06 52.75582 -2.27830 1098 ft 82 kts 351°
2026-05-06 15:06 52.76129 -2.27967 1191 ft 79 kts 354°
2026-05-06 15:07 52.76675 -2.28089 1301 ft 79 kts 352°
2026-05-06 15:07 52.77236 -2.28205 1318 ft 84 kts 355°
2026-05-06 15:07 52.77806 -2.28306 1415 ft 82 kts 356°
2026-05-06 15:07 52.78384 -2.28414 1468 ft 84 kts 357°
2026-05-06 15:08 52.78951 -2.28495 1556 ft 82 kts 356°
2026-05-06 15:08 52.79551 -2.28620 1617 ft 89 kts 357°
2026-05-06 15:08 52.80189 -2.28735 1662 ft 92 kts 359°
2026-05-06 15:08 52.80844 -2.28775 1639 ft 99 kts
2026-05-06 15:09 52.81496 -2.28738 1721 ft 93 kts
2026-05-06 15:09 52.82168 -2.28618 1746 ft 97 kts 10°
2026-05-06 15:09 52.82832 -2.28485 1771 ft 99 kts 14°
2026-05-06 15:09 52.83511 -2.28236 1778 ft 100 kts 16°
2026-05-06 15:10 52.84146 -2.27719 1782 ft 101 kts 37°
2026-05-06 15:10 52.84660 -2.26901 1741 ft 106 kts 50°
2026-05-06 15:10 52.85107 -2.25925 1712 ft 107 kts 57°
2026-05-06 15:10 52.85486 -2.24830 1671 ft 109 kts 67°
2026-05-06 15:11 52.85795 -2.23692 1659 ft 109 kts 66°
2026-05-06 15:11 52.86140 -2.22582 1661 ft 107 kts 62°
2026-05-06 15:11 52.86556 -2.21561 1657 ft 106 kts 59°
2026-05-06 15:11 52.86970 -2.20567 1635 ft 107 kts 59°
2026-05-06 15:12 52.87401 -2.19522 1607 ft 109 kts 58°
2026-05-06 15:12 52.87816 -2.18448 1487 ft 114 kts 61°
2026-05-06 15:12 52.88260 -2.17395 1462 ft 112 kts 54°
2026-05-06 15:12 52.88823 -2.16523 1459 ft 109 kts 39°
2026-05-06 15:13 52.89522 -2.16009 1400 ft 112 kts 15°
2026-05-06 15:13 52.90315 -2.16045 1337 ft 117 kts 352°
2026-05-06 15:13 52.91083 -2.16410 1285 ft 115 kts 343°
2026-05-06 15:13 52.91821 -2.16955 1226 ft 115 kts 339°
2026-05-06 15:14 52.92530 -2.17540 1192 ft 114 kts 335°
2026-05-06 15:14 52.93220 -2.18142 1176 ft 111 kts 337°
2026-05-06 15:14 52.93888 -2.18768 1151 ft 111 kts 333°
2026-05-06 15:14 52.94558 -2.19423 1137 ft 113 kts 334°
2026-05-06 15:15 52.95230 -2.20050 1139 ft 110 kts 335°
2026-05-06 15:15 52.95923 -2.20591 1130 ft 108 kts 342°
2026-05-06 15:15 52.96633 -2.21007 1106 ft 108 kts 344°
2026-05-06 15:15 52.97340 -2.21431 1091 ft 108 kts 343°
2026-05-06 15:16 52.98050 -2.21839 1061 ft 109 kts 347°
2026-05-06 15:16 52.98765 -2.22182 1079 ft 107 kts 348°
2026-05-06 15:16 52.99470 -2.22519 1098 ft 104 kts 349°
2026-05-06 15:16 53.00117 -2.22847 1094 ft 105 kts 347°
2026-05-06 15:17 53.00843 -2.23227 1091 ft 104 kts 346°
2026-05-06 15:17 53.01532 -2.23590 1100 ft 104 kts 349°
2026-05-06 15:17 53.02221 -2.23943 1117 ft 104 kts 346°
2026-05-06 15:17 53.02902 -2.24358 1118 ft 104 kts 342°
2026-05-06 15:18 53.03580 -2.24809 1140 ft 105 kts 340°
2026-05-06 15:18 53.04242 -2.25293 1158 ft 104 kts 338°
2026-05-06 15:18 53.04909 -2.25791 1154 ft 105 kts 339°
2026-05-06 15:18 53.05565 -2.26304 1171 ft 105 kts 337°
2026-05-06 15:19 53.06192 -2.26843 1200 ft 104 kts 335°
2026-05-06 15:19 53.06838 -2.27404 1216 ft 105 kts 336°
2026-05-06 15:19 53.07471 -2.28009 1184 ft 106 kts 328°
2026-05-06 15:19 53.08038 -2.28787 1180 ft 106 kts 320°
2026-05-06 15:20 53.08577 -2.29643 1149 ft 108 kts 318°
2026-05-06 15:20 53.09103 -2.30516 1163 ft 106 kts 317°
2026-05-06 15:20 53.09603 -2.31398 1182 ft 105 kts 313°
2026-05-06 15:20 53.10068 -2.32330 1213 ft 105 kts 310°
2026-05-06 15:21 53.10504 -2.33300 1246 ft 104 kts 308°
2026-05-06 15:21 53.10898 -2.34317 1226 ft 106 kts 300°
2026-05-06 15:21 53.11253 -2.35387 1283 ft 104 kts 298°
2026-05-06 15:21 53.11574 -2.36463 1301 ft 103 kts 296°
2026-05-06 15:22 53.11878 -2.37546 1333 ft 103 kts 295°
2026-05-06 15:22 53.12138 -2.38662 1352 ft 103 kts 289°
2026-05-06 15:22 53.12342 -2.39766 1359 ft 106 kts 286°
2026-05-06 15:22 53.12542 -2.40949 1415 ft 102 kts 285°
2026-05-06 15:23 53.12709 -2.42096 1418 ft 104 kts 281°
2026-05-06 15:23 53.12855 -2.43260 1448 ft 101 kts 281°
2026-05-06 15:23 53.13038 -2.44393 1448 ft 102 kts 285°
2026-05-06 15:23 53.13218 -2.45513 1478 ft 101 kts 285°
2026-05-06 15:24 53.13448 -2.46622 1495 ft 101 kts 292°
2026-05-06 15:24 53.13774 -2.47661 1506 ft 102 kts 298°
2026-05-06 15:24 53.14127 -2.48665 1525 ft 102 kts 302°
2026-05-06 15:24 53.14522 -2.49658 1535 ft 102 kts 310°
2026-05-06 15:25 53.14991 -2.50525 1565 ft 101 kts 316°
2026-05-06 15:25 53.15594 -2.51153 1590 ft 101 kts 335°
2026-05-06 15:25 53.16221 -2.51720 1585 ft 105 kts 332°
2026-05-06 15:25 53.16850 -2.52312 1644 ft 105 kts 332°
2026-05-06 15:26 53.17494 -2.52913 1669 ft 107 kts 332°
2026-05-06 15:26 53.18182 -2.53326 1686 ft 109 kts 343°
2026-05-06 15:26 53.18945 -2.53732 1572 ft 118 kts 345°
2026-05-06 15:26 53.19791 -2.54114 1392 ft 126 kts 349°
2026-05-06 15:27 53.20620 -2.54408 1298 ft 124 kts 351°
2026-05-06 15:27 53.21449 -2.54671 1253 ft 120 kts 352°
2026-05-06 15:27 53.22253 -2.54925 1267 ft 115 kts 352°
2026-05-06 15:27 53.23046 -2.55161 1206 ft 115 kts 353°
2026-05-06 15:28 53.23841 -2.55307 1150 ft 115 kts 357°
2026-05-06 15:28 53.24632 -2.55393 1111 ft 113 kts 360°
2026-05-06 15:28 53.25403 -2.55434 1060 ft 113 kts
2026-05-06 15:28 53.26192 -2.55434 1017 ft 112 kts
2026-05-06 15:29 53.26962 -2.55408 992 ft 111 kts
2026-05-06 15:29 53.27731 -2.55330 974 ft 110 kts
2026-05-06 15:29 53.28492 -2.55289 966 ft 110 kts
2026-05-06 15:29 53.29255 -2.55294 951 ft 110 kts
2026-05-06 15:30 53.30010 -2.55256 962 ft 107 kts
2026-05-06 15:30 53.30504 -2.55240 985 ft 107 kts
2026-05-06 15:30 53.31495 -2.55224 978 ft 108 kts
2026-05-06 15:30 53.31995 -2.55204 988 ft 108 kts
2026-05-06 15:31 53.32753 -2.55160 953 ft 109 kts
2026-05-06 15:31 53.33727 -2.55065 957 ft 108 kts
2026-05-06 15:31 53.34480 -2.54946 942 ft 109 kts
2026-05-06 15:32 53.35734 -2.54727 944 ft 109 kts
2026-05-06 15:32 53.36483 -2.54595 957 ft 107 kts 10°
2026-05-06 15:32 53.37221 -2.54438 946 ft 107 kts 12°
2026-05-06 15:32 53.37954 -2.54301 952 ft 106 kts
2026-05-06 15:33 53.38697 -2.54261 944 ft 107 kts
2026-05-06 15:33 53.39439 -2.54187 960 ft 107 kts
2026-05-06 15:33 53.40181 -2.54116 970 ft 107 kts
2026-05-06 15:33 53.40908 -2.54052 961 ft 107 kts
2026-05-06 15:34 53.41651 -2.53971 958 ft 106 kts
2026-05-06 15:34 53.42395 -2.53996 923 ft 108 kts
2026-05-06 15:34 53.43140 -2.54040 915 ft 107 kts
2026-05-06 15:34 53.43883 -2.54053 903 ft 106 kts
2026-05-06 15:35 53.44620 -2.54066 905 ft 106 kts
2026-05-06 15:35 53.45359 -2.54041 915 ft 104 kts
2026-05-06 15:35 53.46080 -2.54019 907 ft 105 kts
2026-05-06 15:35 53.46801 -2.54022 948 ft 102 kts
2026-05-06 15:36 53.47516 -2.54070 950 ft 104 kts 360°
2026-05-06 15:36 53.48239 -2.54168 1009 ft 103 kts 359°
2026-05-06 15:36 53.48920 -2.54286 1010 ft 103 kts 357°
2026-05-06 15:36 53.49634 -2.54450 1018 ft 103 kts 355°
2026-05-06 15:37 53.50346 -2.54624 1037 ft 103 kts 355°
2026-05-06 15:37 53.51047 -2.54835 1070 ft 103 kts 353°
2026-05-06 15:37 53.51747 -2.55067 1074 ft 105 kts 352°
2026-05-06 15:37 53.52465 -2.55304 1092 ft 105 kts 352°
2026-05-06 15:38 53.53158 -2.55531 1131 ft 104 kts 352°
2026-05-06 15:38 53.53875 -2.55759 1146 ft 104 kts 351°
2026-05-06 15:38 53.54585 -2.55933 1179 ft 104 kts 354°
2026-05-06 15:38 53.55302 -2.56128 1223 ft 102 kts 354°
2026-05-06 15:39 53.55997 -2.56348 1229 ft 102 kts 353°
2026-05-06 15:39 53.56673 -2.56556 1308 ft 98 kts 351°
2026-05-06 15:39 53.57355 -2.56824 1292 ft 101 kts 353°
2026-05-06 15:39 53.58027 -2.56939 1362 ft 97 kts 354°
2026-05-06 15:40 53.58704 -2.57022 1381 ft 97 kts
2026-05-06 15:40 53.59382 -2.56963 1421 ft 97 kts
2026-05-06 15:40 53.60050 -2.56867 1470 ft 96 kts
2026-05-06 15:40 53.60722 -2.56801 1456 ft 98 kts
2026-05-06 15:41 53.61407 -2.56653 1434 ft 99 kts
2026-05-06 15:41 53.62068 -2.56375 1441 ft 97 kts 16°
2026-05-06 15:41 53.62672 -2.55862 1406 ft 99 kts 32°
2026-05-06 15:41 53.63261 -2.55287 1412 ft 97 kts 29°
2026-05-06 15:42 53.63847 -2.54730 1438 ft 94 kts 29°
2026-05-06 15:42 53.64424 -2.54225 1485 ft 93 kts 26°
2026-05-06 15:42 53.65039 -2.53820 1481 ft 97 kts 21°
2026-05-06 15:42 53.65664 -2.53426 1509 ft 96 kts 19°
2026-05-06 15:43 53.66230 -2.53074 1524 ft 94 kts 19°
2026-05-06 15:43 53.66848 -2.52673 1533 ft 95 kts 21°
2026-05-06 15:43 53.67473 -2.52302 1561 ft 96 kts 18°
2026-05-06 15:43 53.68154 -2.51946 1481 ft 106 kts 17°
2026-05-06 15:44 53.68849 -2.51497 1439 ft 105 kts 24°
2026-05-06 15:44 53.69501 -2.50917 1379 ft 105 kts 31°
2026-05-06 15:44 53.69953 -2.50430 1357 ft 104 kts 32°
2026-05-06 15:44 53.70551 -2.49758 1320 ft 105 kts 35°
2026-05-06 15:45 53.71136 -2.49038 1334 ft 102 kts 36°
2026-05-06 15:45 53.71668 -2.48267 1331 ft 102 kts 42°
2026-05-06 15:45 53.72195 -2.47498 1366 ft 101 kts 40°
2026-05-06 15:45 53.72733 -2.46726 1344 ft 101 kts 40°
2026-05-06 15:46 53.73247 -2.45901 1327 ft 101 kts 44°
2026-05-06 15:46 53.73754 -2.45068 1322 ft 102 kts 44°
2026-05-06 15:46 53.74246 -2.44233 1337 ft 100 kts 45°
2026-05-06 15:46 53.74706 -2.43358 1342 ft 99 kts 50°
2026-05-06 15:47 53.75150 -2.42446 1322 ft 101 kts 50°
2026-05-06 15:47 53.75579 -2.41525 1329 ft 100 kts 51°
2026-05-06 15:47 53.75988 -2.40574 1312 ft 100 kts 53°
2026-05-06 15:47 53.76393 -2.39624 1308 ft 100 kts 53°
2026-05-06 15:48 53.76818 -2.38700 1310 ft 100 kts 51°
2026-05-06 15:48 53.77280 -2.37810 1310 ft 100 kts 48°
2026-05-06 15:48 53.77689 -2.36874 1310 ft 101 kts 61°
2026-05-06 15:48 53.77998 -2.35820 1350 ft 99 kts 64°
2026-05-06 15:49 53.78289 -2.34758 1345 ft 98 kts 65°
2026-05-06 15:49 53.78589 -2.33724 1337 ft 99 kts 62°
2026-05-06 15:49 53.78900 -2.32696 1329 ft 99 kts 62°
2026-05-06 15:49 53.79226 -2.31684 1330 ft 98 kts 62°
2026-05-06 15:50 53.79586 -2.30683 1301 ft 100 kts 59°
2026-05-06 15:50 53.79961 -2.29710 1334 ft 98 kts 57°
2026-05-06 15:50 53.80364 -2.28775 1328 ft 98 kts 53°
2026-05-06 15:50 53.80791 -2.27884 1332 ft 97 kts 51°
2026-05-06 15:51 53.81271 -2.27078 1331 ft 98 kts 43°
2026-05-06 15:51 53.81752 -2.26312 1341 ft 98 kts 42°
2026-05-06 15:51 53.82252 -2.25510 1350 ft 98 kts 45°
2026-05-06 15:51 53.82735 -2.24692 1367 ft 98 kts 46°
2026-05-06 15:52 53.83223 -2.23905 1411 ft 97 kts 44°
2026-05-06 15:52 53.83750 -2.23187 1460 ft 96 kts 38°
2026-05-06 15:52 53.84281 -2.22520 1489 ft 97 kts 37°
2026-05-06 15:52 53.84829 -2.21852 1527 ft 97 kts 36°
2026-05-06 15:53 53.85372 -2.21171 1566 ft 96 kts 39°
2026-05-06 15:53 53.85930 -2.20514 1539 ft 101 kts 36°
2026-05-06 15:53 53.86520 -2.19867 1508 ft 106 kts 34°
2026-05-06 15:53 53.87142 -2.19195 1485 ft 107 kts 34°
2026-05-06 15:54 53.87772 -2.18504 1440 ft 108 kts 34°
2026-05-06 15:54 53.88387 -2.17859 1412 ft 108 kts 34°
2026-05-06 15:54 53.89033 -2.17205 1387 ft 109 kts 33°
2026-05-06 15:54 53.89674 -2.16555 1378 ft 107 kts 34°
2026-05-06 15:55 53.90301 -2.15885 1362 ft 107 kts 35°
2026-05-06 15:55 53.90919 -2.15206 1364 ft 105 kts 36°
2026-05-06 15:55 53.91506 -2.14527 1384 ft 103 kts 37°
2026-05-06 15:55 53.92087 -2.13833 1429 ft 100 kts 37°
2026-05-06 15:56 53.92648 -2.13126 1421 ft 101 kts 37°
2026-05-06 15:56 53.93196 -2.12388 1408 ft 100 kts 40°
2026-05-06 15:56 53.93713 -2.11607 1390 ft 100 kts 43°
2026-05-06 15:56 53.94247 -2.10856 1410 ft 99 kts 40°
2026-05-06 15:57 53.94792 -2.10133 1413 ft 99 kts 40°
2026-05-06 15:57 53.95350 -2.09442 1405 ft 99 kts 37°
2026-05-06 15:57 53.95835 -2.08634 1433 ft 97 kts 47°
2026-05-06 15:57 53.96334 -2.07847 1435 ft 98 kts 43°
2026-05-06 15:58 53.96822 -2.07079 1446 ft 97 kts 45°
2026-05-06 15:58 53.97281 -2.06253 1462 ft 96 kts 47°
2026-05-06 15:58 53.97744 -2.05431 1456 ft 96 kts 46°
2026-05-06 15:58 53.98187 -2.04564 1473 ft 97 kts 49°
2026-05-06 15:59 53.98621 -2.03697 1539 ft 96 kts 50°
2026-05-06 15:59 53.99038 -2.02831 1611 ft 91 kts 53°
2026-05-06 15:59 53.99460 -2.02074 1660 ft 88 kts 44°
2026-05-06 15:59 53.99928 -2.01385 1622 ft 93 kts 44°
2026-05-06 16:00 54.00354 -2.00654 1709 ft 85 kts 44°
2026-05-06 16:00 54.00772 -1.99966 1761 ft 81 kts 50°
2026-05-06 16:00 54.01140 -1.99276 1798 ft 82 kts 45°
2026-05-06 16:00 54.01613 -1.98639 1986 ft 89 kts 34°
2026-05-06 16:01 54.02116 -1.98116 2203 ft 85 kts 31°
2026-05-06 16:01 54.02655 -1.97523 2319 ft 90 kts 34°
2026-05-06 16:01 54.03168 -1.96910 2475 ft 94 kts 35°
2026-05-06 16:01 54.03771 -1.96219 2487 ft 108 kts 36°
2026-05-06 16:02 54.04423 -1.95517 2599 ft 110 kts 34°
2026-05-06 16:02 54.05019 -1.94789 2773 ft 106 kts 39°
2026-05-06 16:02 54.05583 -1.93979 2782 ft 114 kts 42°
2026-05-06 16:02 54.06268 -1.92997 2480 ft 136 kts 38°
2026-05-06 16:03 54.07029 -1.91926 2215 ft 138 kts 44°
2026-05-06 16:03 54.07686 -1.90825 2076 ft 127 kts 50°
2026-05-06 16:03 54.08235 -1.89707 1985 ft 119 kts 51°
2026-05-06 16:03 54.08773 -1.88735 1985 ft 108 kts 48°
2026-05-06 16:04 54.09299 -1.87870 1903 ft 104 kts 43°
2026-05-06 16:04 54.09863 -1.87151 1879 ft 99 kts 38°
2026-05-06 16:04 54.10430 -1.86498 1823 ft 98 kts 33°
2026-05-06 16:04 54.10997 -1.85879 1772 ft 96 kts 33°
2026-05-06 16:05 54.11550 -1.85261 1726 ft 95 kts 34°
2026-05-06 16:05 54.12105 -1.84681 1698 ft 93 kts 32°
2026-05-06 16:05 54.12656 -1.84121 1705 ft 91 kts 32°
2026-05-06 16:05 54.13234 -1.83628 1786 ft 93 kts 25°
2026-05-06 16:06 54.13829 -1.83187 1845 ft 95 kts 23°
2026-05-06 16:06 54.14446 -1.82784 1929 ft 95 kts 22°
2026-05-06 16:06 54.15086 -1.82457 1931 ft 96 kts 17°
2026-05-06 16:06 54.15746 -1.82163 1939 ft 98 kts 16°
2026-05-06 16:07 54.16401 -1.81875 1991 ft 98 kts 14°
2026-05-06 16:07 54.17072 -1.81668 2042 ft 97 kts 10°
2026-05-06 16:07 54.17752 -1.81568 2048 ft 99 kts
2026-05-06 16:07 54.18433 -1.81523 2103 ft 98 kts
2026-05-06 16:08 54.19122 -1.81476 2120 ft 99 kts
2026-05-06 16:08 54.19809 -1.81462 2163 ft 100 kts
2026-05-06 16:08 54.20505 -1.81415 2215 ft 101 kts
2026-05-06 16:08 54.21208 -1.81412 2250 ft 101 kts
2026-05-06 16:09 54.21913 -1.81440 2246 ft 102 kts
2026-05-06 16:09 54.22626 -1.81464 2287 ft 102 kts
2026-05-06 16:09 54.23332 -1.81437 2288 ft 104 kts
2026-05-06 16:09 54.24045 -1.81289 2315 ft 104 kts
2026-05-06 16:10 54.24755 -1.81034 2285 ft 105 kts 12°
2026-05-06 16:10 54.25461 -1.80766 2288 ft 103 kts 13°
2026-05-06 16:10 54.26174 -1.80478 2274 ft 107 kts 14°
2026-05-06 16:10 54.26885 -1.80182 2333 ft 108 kts 14°
2026-05-06 16:11 54.27641 -1.79914 2292 ft 110 kts 13°
2026-05-06 16:11 54.28388 -1.79642 2245 ft 110 kts 14°
2026-05-06 16:11 54.29138 -1.79404 2221 ft 109 kts 12°
2026-05-06 16:11 54.29897 -1.79142 2121 ft 114 kts 15°
2026-05-06 16:12 54.30659 -1.78760 2097 ft 115 kts 20°
2026-05-06 16:12 54.31407 -1.78283 2047 ft 114 kts 24°
2026-05-06 16:12 54.32109 -1.77689 2041 ft 111 kts 28°
2026-05-06 16:12 54.32776 -1.77024 2029 ft 108 kts 34°
2026-05-06 16:13 54.33377 -1.76235 2030 ft 107 kts 39°
2026-05-06 16:13 54.33929 -1.75411 2014 ft 108 kts 42°
2026-05-06 16:13 54.34467 -1.74517 1982 ft 108 kts 44°
2026-05-06 16:13 54.34992 -1.73570 1937 ft 109 kts 46°
2026-05-06 16:14 54.35509 -1.72617 1941 ft 109 kts 46°
2026-05-06 16:14 54.36014 -1.71681 1975 ft 107 kts 46°
2026-05-06 16:14 54.36502 -1.70716 1983 ft 105 kts 48°
2026-05-06 16:14 54.36987 -1.69782 1998 ft 105 kts 48°
2026-05-06 16:15 54.37454 -1.68820 2032 ft 105 kts 49°
2026-05-06 16:15 54.37916 -1.67852 2048 ft 105 kts 51°
2026-05-06 16:15 54.38373 -1.66879 2078 ft 105 kts 51°
2026-05-06 16:15 54.38847 -1.65919 2077 ft 105 kts 48°
2026-05-06 16:16 54.39331 -1.64960 2071 ft 106 kts 49°
2026-05-06 16:16 54.39801 -1.63974 2032 ft 109 kts 51°
2026-05-06 16:16 54.40287 -1.62969 2014 ft 110 kts 51°
2026-05-06 16:16 54.40774 -1.61958 1978 ft 111 kts 51°
2026-05-06 16:17 54.41265 -1.60925 1865 ft 114 kts 51°
2026-05-06 16:17 54.41770 -1.59883 1763 ft 114 kts 49°
2026-05-06 16:17 54.42298 -1.58861 1710 ft 113 kts 49°
2026-05-06 16:17 54.42853 -1.57879 1627 ft 113 kts 47°
2026-05-06 16:18 54.43387 -1.56947 1423 ft 110 kts 47°
2026-05-06 16:18 54.43898 -1.56046 1248 ft 105 kts 46°
2026-05-06 16:18 54.44407 -1.55160 1099 ft 99 kts 47°
2026-05-06 16:18 54.44886 -1.54295 900 ft 103 kts 48°
2026-05-06 16:19 54.45198 -1.53689 808 ft 99 kts 49°
2026-05-06 16:19 54.45634 -1.52835 750 ft 91 kts 46°
2026-05-06 16:19 54.46064 -1.52071 727 ft 85 kts 47°
2026-05-06 16:19 54.46463 -1.51308 746 ft 87 kts 44°
2026-05-06 16:20 54.46864 -1.50542 795 ft 87 kts 44°
2026-05-06 16:20 54.47268 -1.49752 847 ft 88 kts 48°
2026-05-06 16:20 54.47686 -1.49002 870 ft 80 kts 52°
2026-05-06 16:20 54.48037 -1.48316 765 ft 76 kts 49°
2026-05-06 16:21 54.48393 -1.47653 745 ft 77 kts 43°
2026-05-06 16:21 54.48756 -1.46983 735 ft 78 kts 47°
2026-05-06 16:21 54.49130 -1.46277 691 ft 81 kts 50°
2026-05-06 16:21 54.49510 -1.45540 602 ft 82 kts 53°
2026-05-06 16:22 54.49918 -1.44803 456 ft 89 kts 47°
2026-05-06 16:22 54.50341 -1.44010 246 ft 89 kts 46°
2026-05-06 16:22 54.50748 -1.43272 144 ft 76 kts 43°
2026-05-06 16:22 54.51062 -1.42676 115 ft 57 kts 40°
2026-05-06 16:23 54.51279 -1.42260 121 ft 43 kts 47°
2026-05-06 16:23 54.51470 -1.41913 115 ft 34 kts 46°
2026-05-06 16:23 54.51591 -1.41711 115 ft 19 kts 25°
2026-05-06 16:23 54.51676 -1.41715 116 ft 8 kts 344°
2026-05-06 16:24 54.51707 -1.41734 117 ft 3 kts 335°
2026-05-06 16:24 54.51722 -1.41745 118 ft 2 kts 336°
2026-05-06 16:24 54.51742 -1.41763 118 ft 5 kts 330°
2026-05-06 16:24 54.51772 -1.41809 119 ft 7 kts 306°
2026-05-06 16:25 54.51797 -1.41918 118 ft 12 kts 278°
2026-05-06 16:25 54.51801 -1.42068 115 ft 13 kts 272°
2026-05-06 16:25 54.51806 -1.42208 115 ft 11 kts 274°
2026-05-06 16:25 54.51807 -1.42327 115 ft 9 kts 261°
2026-05-06 16:26 54.51783 -1.42418 115 ft 8 kts 229°
2026-05-06 16:26 54.51734 -1.42454 115 ft 8 kts 195°
2026-05-06 16:26 54.51683 -1.42474 116 ft 7 kts 191°
2026-05-06 16:26 54.51635 -1.42489 117 ft 7 kts 191°
2026-05-06 16:27 54.51582 -1.42507 117 ft 8 kts 192°
2026-05-06 16:27 54.51526 -1.42526 118 ft 8 kts 191°
2026-05-06 16:27 54.51475 -1.42547 120 ft 7 kts 194°
2026-05-06 16:27 54.51435 -1.42563 120 ft 5 kts 193°
2026-05-06 16:28 54.51399 -1.42577 122 ft 5 kts 192°
2026-05-06 16:28 54.51361 -1.42595 122 ft 7 kts 205°
2026-05-06 16:28 54.51310 -1.42648 120 ft 10 kts 213°
2026-05-06 16:28 54.51265 -1.42741 121 ft 11 kts 241°
2026-05-06 16:29 54.51227 -1.42868 119 ft 13 kts 234°
2026-05-06 16:29 54.51180 -1.43010 120 ft 13 kts 236°
2026-05-06 16:29 54.51140 -1.42946 116 ft 10 kts 55°
2026-05-06 16:29 54.51159 -1.42940 119 ft 0 kts 327°